Location: Bannatyne
(13.0833°N, 59.5333°W)
Time: 13:07:19
(UTC+00:00)

Vanguard 3 - Pass Details

Date: 30 January 2020
Orbit: 508 x 3263 km, 33.3° (Epoch: 22 February)

Event Time Altitude Azimuth Distance (km) Brightness Sun altitude
Rises 04:33:13 0° 292° (WNW) 5,917 - -82.9°
Reaches altitude 10° 04:38:13 10° 285° (WNW) 4,421 - -82.0°
Maximum altitude 04:47:45 34° 226° (SW) 2,054 - -80.0°
Drops below altitude 10° 04:53:37 10° 163° (SSE) 2,670 - -78.8°
Sets 04:55:55 0° 152° (SSE) 3,353 - -78.3°
